| time (UTC) | temp F | wind direction | speed knots | gust knots | rain 1hr in | rain 24hr in | rain mn in | humidity % | barometer mb |
| 20260504081502 | 73 | 221 | 2.6 | 3.5 | 0.00 | 0.00 | 0.00 | 43 | 1010.5 |
| 20260504050002 | 57 | 234 | 3.5 | 6.1 | 0.00 | 0.00 | 0.00 | 57 | 1009.4 |
| 20260504044502 | 57 | 145 | 3.5 | 6.1 | 0.00 | 0.00 | 0.00 | 58 | 1009.4 |
| 20260504043003 | 57 | 189 | 5.2 | 5.2 | 0.00 | 0.00 | 0.00 | 58 | 1009.1 |
| 20260504041502 | 57 | 222 | 3.5 | 5.2 | 0.00 | 0.00 | 0.00 | 58 | 1009.1 |
| 20260504040002 | 57 | 215 | 2.6 | 2.6 | 0.00 | 0.00 | 0.00 | 60 | 1009.1 |
| 20260504034502 | 57 | 192 | 3.5 | 7.8 | 0.00 | 0.00 | 0.00 | 59 | 1009.1 |
| 20260504033003 | 55 | 208 | 2.6 | 4.3 | 0.00 | 0.00 | 0.00 | 61 | 1009.1 |
| 20260504031503 | 55 | 207 | 0.9 | 2.6 | 0.00 | 0.00 | 0.00 | 61 | 1009.1 |
| 20260504030002 | 55 | 189 | 2.6 | 7.0 | 0.00 | 0.00 | 0.00 | 60 | 1009.4 |
| 20260504024502 | 55 | 181 | 2.6 | 2.6 | 0.00 | 0.00 | 0.00 | 61 | 1009.1 |
| 20260504023003 | 57 | 206 | 2.6 | 4.3 | 0.00 | 0.00 | 0.00 | 59 | 1009.4 |
| 20260504021502 | 57 | 226 | 1.7 | 3.5 | 0.00 | 0.00 | 0.00 | 58 | 1009.1 |
| 20260504020002 | 57 | 222 | 1.7 | 2.6 | 0.00 | 0.00 | 0.00 | 58 | 1009.1 |
| 20260504014502 | 57 | 217 | 2.6 | 3.5 | 0.00 | 0.00 | 0.00 | 57 | 1009.1 |
| 20260504013003 | 57 | 205 | 2.6 | 3.5 | 0.00 | 0.00 | 0.00 | 56 | 1009.4 |
| 20260504011503 | 57 | 204 | 2.6 | 2.6 | 0.00 | 0.00 | 0.00 | 56 | 1009.4 |
| 20260504010002 | 57 | 189 | 3.5 | 4.3 | 0.00 | 0.00 | 0.00 | 55 | 1009.4 |
| 20260504004503 | 57 | 201 | 3.5 | 3.5 | 0.00 | 0.00 | 0.00 | 55 | 1009.4 |
| 20260504003002 | 57 | 180 | 1.7 | 4.3 | 0.00 | 0.00 | 0.00 | 54 | 1009.4 |
| 20260504001503 | 59 | 183 | 3.5 | 3.5 | 0.00 | 0.00 | 0.00 | 53 | 1009.1 |
| 20260504000001 | 59 | 222 | 1.7 | 1.7 | 0.00 | 0.00 | 0.00 | 53 | 1009.4 |
| 20260503234502 | 59 | 198 | 2.6 | 4.3 | 0.00 | 0.00 | 0.00 | 51 | 1009.4 |
| 20260503233002 | 59 | 188 | 2.6 | 2.6 | 0.00 | 0.00 | 0.00 | 52 | 1009.4 |
| 20260503231502 | 59 | 188 | 2.6 | 3.5 | 0.00 | 0.00 | 0.00 | 52 | 1009.4 |
| 20260503230003 | 57 | 218 | 1.7 | 1.7 | 0.00 | 0.00 | 0.00 | 53 | 1009.4 |
| 20260503224502 | 59 | 179 | 1.7 | 3.5 | 0.00 | 0.00 | 0.00 | 52 | 1009.4 |
| 20260503223001 | 59 | 224 | 2.6 | 2.6 | 0.00 | 0.00 | 0.00 | 49 | 1009.4 |
| 20260503221503 | 59 | 210 | 1.7 | 1.7 | 0.00 | 0.00 | 0.00 | 49 | 1009.4 |
| 20260503220002 | 59 | 175 | 2.6 | 2.6 | 0.00 | 0.00 | 0.00 | 48 | 1009.4 |
| 20260503214502 | 60 | 227 | 0.9 | 0.9 | 0.00 | 0.00 | 0.00 | 47 | 1009.8 |
| 20260503213003 | 60 | 200 | 0.9 | 2.6 | 0.00 | 0.00 | 0.00 | 46 | 1009.8 |
| 20260503211502 | 60 | 186 | 1.7 | 1.7 | 0.00 | 0.00 | 0.00 | 45 | 1009.8 |
| 20260503210002 | 62 | 182 | 1.7 | 2.6 | 0.00 | 0.00 | 0.00 | 44 | 1009.8 |
| 20260503204502 | 62 | 203 | 0.9 | 2.6 | 0.00 | 0.00 | 0.00 | 43 | 1009.8 |
| 20260503203003 | 62 | 209 | 1.7 | 2.6 | 0.00 | 0.00 | 0.00 | 40 | 1009.8 |
| 20260503201502 | 64 | 200 | 2.6 | 2.6 | 0.00 | 0.00 | 0.00 | 38 | 1009.8 |
| 20260503200004 | 64 | 223 | 1.7 | 2.6 | 0.00 | 0.00 | 0.00 | 37 | 1009.8 |
| 20260503194503 | 64 | 193 | 0.9 | 1.7 | 0.00 | 0.00 | 0.00 | 35 | 1009.8 |
| 20260503193002 | 66 | 212 | 0.9 | 1.7 | 0.00 | 0.00 | 0.00 | 33 | 1009.8 |
| 20260503191502 | 66 | 213 | 0.9 | 0.9 | 0.00 | 0.00 | 0.00 | 33 | 1009.8 |
| 20260503190004 | 66 | 208 | 0.9 | 0.9 | 0.00 | 0.00 | 0.00 | 31 | 1009.8 |
| 20260503184503 | 68 | 179 | 1.7 | 2.6 | 0.00 | 0.00 | 0.00 | 31 | 1009.8 |
| 20260503183001 | 69 | 217 | 0.9 | 0.9 | 0.00 | 0.00 | 0.00 | 30 | 1009.8 |
| 20260503181503 | 69 | 208 | 0.9 | 0.9 | 0.00 | 0.00 | 0.00 | 29 | 1009.8 |
| 20260503180002 | 71 | 210 | 1.7 | 2.6 | 0.00 | 0.00 | 0.00 | 27 | 1009.4 |
| 20260503174503 | 73 | 211 | 0.9 | 2.6 | 0.00 | 0.00 | 0.00 | 28 | 1009.4 |
| 20260503173002 | 73 | 205 | 2.6 | 2.6 | 0.00 | 0.00 | 0.00 | 26 | 1009.4 |
| 20260503171501 | 75 | 200 | 2.6 | 5.2 | 0.00 | 0.00 | 0.00 | 24 | 1009.4 |